QPF
0.00 0.00 0.00 0.00 0.00 0.00 0.00 0.00 0.00 0.00 0.00 0.00 0.00 0.00 0.00 0.00 0.00 0.00 0.00 0.00 0.00 0.01 0.03 0.05 0.11 0.15 0.10 0.10 0.07 0.05 0.04 0.02 0.01 0.01 0.00 0.00 0.00 0.00 0.00 0.00 0.00 0.00 0.00 0.00
0.00 0.00 0.00 0.00 0.00 0.00 0.00 0.00 0.00 0.00 0.00 0.00 0.00 0.00 0.00 0.00 0.00 0.00 0.00 0.01 0.04 0.11 0.22 0.49 0.74 0.61 0.26 0.10 0.04 0.02 0.02 0.01 0.00 0.00 0.00 0.00 0.00 0.00 0.00 0.00 0.00 0.00 0.00 0.00
0.00 0.00 0.00 0.00 0.00 0.00 0.00 0.00 0.00 0.00 0.00 0.00 0.00 0.00 0.00 0.00 0.00 0.00 0.01 0.04 0.15 0.31 0.60 1.11 1.15 0.72 0.34 0.13 0.05 0.02 0.01 0.00 0.00 0.00 0.00 0.00 0.00 0.00 0.00 0.00 0.00 0.00 0.00 0.00
0.00 0.00 0.00 0.00 0.00 0.00 0.00 0.00 0.00 0.00 0.00 0.00 0.00 0.00 0.00 0.00 0.00 0.01 0.02 0.07 0.15 0.29 0.53 0.80 0.81 0.47 0.27 0.18 0.15 0.07 0.01 0.00 0.00 0.00 0.00 0.00 0.00 0.00 0.00 0.00 0.00 0.00 0.00 0.00
0.00 0.00 0.00 0.00 0.00 0.00 0.00 0.00 0.00 0.00 0.00 0.00 0.00 0.00 0.00 0.00 0.00 0.01 0.01 0.04 0.12 0.28 0.38 0.36 0.33 0.26 0.23 0.22 0.22 0.14 0.06 0.07 0.05 0.03 0.03 0.02 0.01 0.00 0.00 0.00 0.00 0.00 0.00 0.00
0.00 0.00 0.00 0.00 0.00 0.00 0.00 0.00 0.00 0.00 0.01 0.05 0.04 0.02 0.01 0.00 0.00 0.01 0.02 0.05 0.16 0.31 0.36 0.31 0.24 0.19 0.18 0.17 0.15 0.12 0.13 0.20 0.17 0.12 0.08 0.09 0.07 0.04 0.02 0.01 0.01 0.00 0.00 0.00
0.01 0.00 0.00 0.00 0.00 0.00 0.00 0.00 0.00 0.01 0.08 0.12 0.06 0.03 0.04 0.00 0.00 0.00 0.01 0.03 0.10 0.19 0.28 0.33 0.28 0.21 0.16 0.14 0.10 0.06 0.06 0.12 0.13 0.09 0.09 0.12 0.14 0.11 0.06 0.04 0.02 0.02 0.00 0.00
0.03 0.01 0.00 0.00 0.00 0.00 0.00 0.00 0.00 0.00 0.00 0.01 0.01 0.02 0.04 0.03 0.01 0.00 0.00 0.01 0.03 0.05 0.08 0.12 0.13 0.11 0.07 0.05 0.04 0.03 0.02 0.03 0.04 0.05 0.07 0.10 0.12 0.08 0.07 0.12 0.08 0.04 0.02 0.00
0.00 0.00 0.00 0.00 0.00 0.00 0.00 0.00 0.00 0.00 0.00 0.00 0.01 0.05 0.12 0.16 0.11 0.03 0.00 0.00 0.01 0.01 0.02 0.04 0.05 0.05 0.04 0.03 0.02 0.02 0.01 0.01 0.01 0.02 0.04 0.07 0.12 0.12 0.11 0.12 0.11 0.08 0.07 0.03
0.00 0.00 0.00 0.00 0.00 0.00 0.00 0.00 0.00 0.00 0.00 0.00 0.00 0.07 0.20 0.28 0.20 0.05 0.01 0.00 0.00 0.01 0.01 0.01 0.01 0.02 0.02 0.02 0.02 0.03 0.02 0.02 0.02 0.02 0.02 0.04 0.09 0.13 0.13 0.12 0.14 0.14 0.12 0.08
0.00 0.00 0.00 0.00 0.00 0.00 0.00 0.00 0.00 0.00 0.00 0.00 0.00 0.06 0.09 0.09 0.05 0.02 0.01 0.00 0.00 0.00 0.00 0.00 0.01 0.01 0.02 0.02 0.02 0.02 0.02 0.02 0.02 0.02 0.02 0.02 0.03 0.06 0.11 0.14 0.16 0.17 0.16 0.14
0.00 0.00 0.00 0.00 0.01 0.00 0.00 0.00 0.00 0.00 0.00 0.00 0.01 0.07 0.05 0.05 0.04 0.03 0.01 0.00 0.00 0.00 0.00 0.00 0.00 0.00 0.00 0.01 0.01 0.02 0.02 0.02 0.02 0.02 0.02 0.01 0.01 0.01 0.03 0.05 0.08 0.11 0.13 0.13
0.00 0.00 0.00 0.00 0.01 0.01 0.00 0.00 0.00 0.00 0.00 0.00 0.06 0.14 0.08 0.03 0.03 0.02 0.00 0.00 0.00 0.00 0.00 0.00 0.00 0.00 0.00 0.00 0.00 0.01 0.01 0.01 0.01 0.01 0.00 0.00 0.00 0.00 0.00 0.01 0.02 0.04 0.07 0.10
0.00 0.00 0.00 0.00 0.00 0.00 0.00 0.00 0.00 0.00 0.00 0.00 0.04 0.13 0.06 0.01 0.00 0.00 0.00 0.00 0.00 0.00 0.00 0.00 0.00 0.00 0.00 0.00 0.00 0.00 0.00 0.00 0.00 0.00 0.00 0.01 0.01 0.01 0.01 0.01 0.01 0.01 0.03 0.06
0.00 0.00 0.00 0.00 0.00 0.00 0.00 0.00 0.00 0.00 0.00 0.02 0.03 0.07 0.02 0.00 0.00 0.00 0.00 0.00 0.00 0.00 0.00 0.00 0.00 0.00 0.00 0.00 0.00 0.00 0.00 0.00 0.01 0.01 0.02 0.03 0.03 0.03 0.04 0.03 0.03 0.03 0.03 0.04
0.00 0.00 0.00 0.00 0.00 0.00 0.00 0.00 0.00 0.00 0.00 0.00 0.00 0.01 0.00 0.00 0.00 0.00 0.00 0.00 0.00 0.00 0.00 0.00 0.00 0.00 0.00 0.00 0.00 0.00 0.00 0.00 0.01 0.01 0.01 0.02 0.02 0.02 0.03 0.02 0.02 0.02 0.02 0.03
0.00 0.00 0.00 0.00 0.00 0.00 0.05 0.01 0.00 0.00 0.00 0.00 0.00 0.00 0.00 0.00 0.00 0.00 0.00 0.00 0.00 0.00 0.00 0.00 0.00 0.00 0.00 0.00 0.00 0.00 0.00 0.00 0.00 0.01 0.01 0.01 0.01 0.01 0.01 0.01 0.01 0.01 0.01 0.02
0.00 0.00 0.00 0.00 0.00 0.03 0.05 0.00 0.00 0.00 0.00 0.00 0.00 0.00 0.00 0.00 0.00 0.00 0.00 0.00 0.00 0.00 0.00 0.00 0.00 0.00 0.00 0.00 0.00 0.00 0.00 0.00 0.00 0.00 0.00 0.00 0.00 0.01 0.01 0.01 0.01 0.01 0.01 0.02
0.00 0.00 0.00 0.00 0.00 0.02 0.01 0.00 0.00 0.00 0.00 0.00 0.00 0.00 0.00 0.00 0.00 0.00 0.00 0.00 0.00 0.00 0.00 0.00 0.00 0.00 0.00 0.00 0.00 0.00 0.00 0.00 0.00 0.00 0.00 0.00 0.00 0.01 0.01 0.01 0.02 0.02 0.02 0.02
0.00 0.00 0.00 0.00 0.00 0.01 0.01 0.00 0.00 0.00 0.00 0.00 0.00 0.00 0.00 0.00 0.00 0.00 0.00 0.00 0.00 0.00 0.00 0.00 0.00 0.00 0.00 0.00 0.00 0.00 0.00 0.00 0.00 0.01 0.01 0.01 0.01 0.02 0.02 0.02 0.03 0.02 0.03 0.02
0.00 0.00 0.00 0.00 0.00 0.00 0.00 0.00 0.00 0.00 0.00 0.00 0.00 0.00 0.00 0.00 0.00 0.00 0.00 0.00 0.00 0.00 0.00 0.00 0.00 0.00 0.00 0.00 0.00 0.01 0.02 0.02 0.02 0.02 0.02 0.02 0.02 0.03 0.02 0.03 0.04 0.04 0.03 0.03
0.00 0.00 0.00 0.00 0.00 0.00 0.00 0.00 0.00 0.00 0.00 0.00 0.00 0.00 0.00 0.00 0.00 0.00 0.00 0.00 0.00 0.00 0.00 0.00 0.00 0.00 0.00 0.00 0.01 0.03 0.03 0.03 0.03 0.03 0.03 0.03 0.03 0.03 0.02 0.04 0.05 0.06 0.06 0.06
0.00 0.00 0.00 0.00 0.00 0.00 0.00 0.00 0.00 0.00 0.00 0.00 0.00 0.00 0.00 0.00 0.00 0.00 0.00 0.00 0.00 0.00 0.00 0.00 0.00 0.00 0.00 0.01 0.03 0.04 0.03 0.03 0.03 0.04 0.04 0.04 0.04 0.05 0.05 0.06 0.06 0.06 0.06 0.05
0.00 0.00 0.00 0.00 0.00 0.00 0.00 0.00 0.00 0.00 0.00 0.00 0.00 0.00 0.00 0.00 0.00 0.00 0.00 0.00 0.00 0.00 0.00 0.00 0.00 0.01 0.02 0.03 0.03 0.03 0.03 0.04 0.05 0.06 0.06 0.06 0.06 0.06 0.06 0.08 0.07 0.06 0.05 0.05
0.00 0.00 0.00 0.00 0.00 0.00 0.00 0.00 0.00 0.00 0.00 0.00 0.00 0.00 0.00 0.00 0.00 0.00 0.00 0.00 0.00 0.00 0.00 0.01 0.02 0.04 0.04 0.04 0.03 0.03 0.04 0.07 0.09 0.08 0.08 0.08 0.08 0.07 0.07 0.07 0.07 0.06 0.05 0.05
0.00 0.00 0.00 0.00 0.00 0.00 0.00 0.00 0.00 0.00 0.00 0.00 0.00 0.00 0.00 0.00 0.00 0.00 0.00 0.00 0.00 0.00 0.01 0.04 0.06 0.08 0.07 0.06 0.05 0.05 0.07 0.11 0.13 0.13 0.11 0.11 0.11 0.09 0.08 0.07 0.07 0.04 0.03 0.02
MSLP
1007.83 1008.15 1008.29 1008.26 1008.08 1007.81 1007.51 1007.19 1006.88 1006.56 1006.21 1005.82 1005.37 1004.87 1004.35 1003.86 1003.43 1003.09 1002.87 1002.75 1002.72 1002.75 1002.80 1002.86 1002.94 1003.05 1003.21 1003.47 1003.85 1004.35 1004.95 1005.61 1006.28 1006.90 1007.43 1007.84 1008.12 1008.29 1008.40 1008.49 1008.60 1008.75 1008.96 1009.21
1008.33 1008.53 1008.53 1008.37 1008.11 1007.81 1007.53 1007.29 1007.09 1006.90 1006.70 1006.43 1006.09 1005.68 1005.24 1004.79 1004.41 1004.12 1003.95 1003.89 1003.92 1004.00 1004.08 1004.14 1004.18 1004.20 1004.24 1004.35 1004.55 1004.89 1005.34 1005.87 1006.45 1007.01 1007.49 1007.87 1008.13 1008.27 1008.34 1008.38 1008.44 1008.56 1008.73 1008.98
1008.77 1008.82 1008.70 1008.44 1008.13 1007.83 1007.62 1007.49 1007.44 1007.42 1007.39 1007.28 1007.07 1006.77 1006.40 1006.03 1005.69 1005.46 1005.35 1005.36 1005.46 1005.60 1005.73 1005.80 1005.80 1005.75 1005.68 1005.63 1005.66 1005.80 1006.07 1006.44 1006.88 1007.32 1007.71 1008.01 1008.20 1008.29 1008.30 1008.28 1008.29 1008.36 1008.51 1008.74
1009.06 1008.99 1008.75 1008.43 1008.11 1007.87 1007.75 1007.78 1007.92 1008.10 1008.25 1008.31 1008.25 1008.05 1007.77 1007.44 1007.16 1006.96 1006.90 1006.96 1007.11 1007.30 1007.48 1007.57 1007.57 1007.46 1007.30 1007.12 1006.99 1006.95 1007.04 1007.23 1007.51 1007.81 1008.08 1008.28 1008.38 1008.39 1008.32 1008.24 1008.18 1008.20 1008.31 1008.51
1009.19 1009.01 1008.69 1008.33 1008.04 1007.88 1007.90 1008.11 1008.45 1008.84 1009.19 1009.42 1009.50 1009.40 1009.18 1008.89 1008.62 1008.43 1008.38 1008.45 1008.64 1008.86 1009.07 1009.19 1009.19 1009.06 1008.85 1008.58 1008.34 1008.16 1008.10 1008.14 1008.26 1008.43 1008.58 1008.67 1008.67 1008.59 1008.44 1008.28 1008.15 1008.10 1008.16 1008.33
1009.17 1008.89 1008.52 1008.15 1007.91 1007.85 1008.02 1008.41 1008.95 1009.55 1010.08 1010.48 1010.68 1010.67 1010.49 1010.22 1009.93 1009.72 1009.64 1009.69 1009.86 1010.08 1010.30 1010.44 1010.46 1010.34 1010.11 1009.82 1009.51 1009.26 1009.10 1009.04 1009.05 1009.11 1009.16 1009.15 1009.07 1008.90 1008.67 1008.43 1008.22 1008.10 1008.09 1008.19
1009.06 1008.69 1008.28 1007.93 1007.74 1007.78 1008.09 1008.64 1009.35 1010.12 1010.82 1011.35 1011.66 1011.72 1011.58 1011.30 1010.98 1010.72 1010.57 1010.56 1010.68 1010.88 1011.08 1011.23 1011.26 1011.17 1010.97 1010.70 1010.40 1010.14 1009.95 1009.84 1009.80 1009.79 1009.77 1009.69 1009.54 1009.30 1009.00 1008.68 1008.39 1008.19 1008.10 1008.13
1008.92 1008.49 1008.06 1007.71 1007.57 1007.69 1008.09 1008.76 1009.60 1010.50 1011.32 1011.96 1012.36 1012.48 1012.37 1012.08 1011.73 1011.41 1011.18 1011.09 1011.13 1011.26 1011.43 1011.56 1011.62 1011.57 1011.42 1011.20 1010.96 1010.74 1010.57 1010.47 1010.43 1010.40 1010.35 1010.23 1010.04 1009.75 1009.39 1009.01 1008.66 1008.37 1008.19 1008.13
1008.83 1008.38 1007.92 1007.59 1007.46 1007.62 1008.07 1008.80 1009.71 1010.67 1011.57 1012.29 1012.75 1012.93 1012.85 1012.58 1012.21 1011.83 1011.53 1011.36 1011.31 1011.36 1011.46 1011.57 1011.63 1011.61 1011.52 1011.38 1011.22 1011.07 1010.97 1010.92 1010.90 1010.89 1010.84 1010.72 1010.50 1010.19 1009.80 1009.37 1008.95 1008.60 1008.33 1008.17
1008.86 1008.40 1007.95 1007.61 1007.49 1007.64 1008.09 1008.81 1009.71 1010.69 1011.61 1012.37 1012.89 1013.12 1013.09 1012.85 1012.49 1012.09 1011.74 1011.49 1011.35 1011.32 1011.35 1011.41 1011.46 1011.46 1011.41 1011.34 1011.26 1011.19 1011.16 1011.17 1011.20 1011.22 1011.19 1011.08 1010.86 1010.54 1010.14 1009.69 1009.23 1008.81 1008.48 1008.23
1009.04 1008.60 1008.17 1007.84 1007.70 1007.81 1008.20 1008.86 1009.70 1010.63 1011.53 1012.30 1012.84 1013.14 1013.17 1012.99 1012.67 1012.29 1011.92 1011.62 1011.41 1011.29 1011.25 1011.24 1011.25 1011.24 1011.21 1011.18 1011.15 1011.14 1011.17 1011.23 1011.29 1011.34 1011.33 1011.23 1011.03 1010.72 1010.32 1009.87 1009.40 1008.95 1008.57 1008.26
1009.35 1008.98 1008.60 1008.28 1008.12 1008.17 1008.48 1009.03 1009.76 1010.60 1011.44 1012.18 1012.74 1013.08 1013.19 1013.08 1012.83 1012.49 1012.13 1011.81 1011.54 1011.35 1011.22 1011.14 1011.08 1011.04 1010.99 1010.96 1010.95 1010.96 1011.01 1011.09 1011.16 1011.22 1011.21 1011.13 1010.95 1010.66 1010.28 1009.85 1009.39 1008.95 1008.54 1008.20
1009.75 1009.48 1009.18 1008.90 1008.73 1008.73 1008.94 1009.37 1009.97 1010.69 1011.43 1012.11 1012.66 1013.03 1013.20 1013.17 1012.99 1012.71 1012.38 1012.05 1011.74 1011.48 1011.28 1011.11 1010.97 1010.86 1010.77 1010.70 1010.66 1010.66 1010.69 1010.74 1010.80 1010.84 1010.82 1010.74 1010.57 1010.31 1009.97 1009.58 1009.16 1008.75 1008.36 1008.02
1010.20 1010.06 1009.86 1009.64 1009.49 1009.46 1009.58 1009.89 1010.36 1010.93 1011.56 1012.16 1012.67 1013.03 1013.24 1013.27 1013.15 1012.91 1012.61 1012.27 1011.94 1011.62 1011.33 1011.07 1010.85 1010.65 1010.49 1010.36 1010.27 1010.21 1010.19 1010.19 1010.21 1010.20 1010.16 1010.07 1009.91 1009.68 1009.39 1009.05 1008.69 1008.34 1007.99 1007.68
1010.65 1010.65 1010.57 1010.45 1010.34 1010.30 1010.38 1010.58 1010.92 1011.35 1011.85 1012.34 1012.77 1013.10 1013.30 1013.35 1013.25 1013.04 1012.75 1012.40 1012.02 1011.64 1011.28 1010.93 1010.62 1010.34 1010.10 1009.89 1009.73 1009.61 1009.52 1009.46 1009.41 1009.35 1009.27 1009.16 1009.01 1008.80 1008.56 1008.29 1008.01 1007.72 1007.44 1007.18
1011.07 1011.21 1011.27 1011.26 1011.22 1011.21 1011.25 1011.39 1011.61 1011.92 1012.28 1012.64 1012.97 1013.22 1013.37 1013.38 1013.27 1013.04 1012.72 1012.34 1011.91 1011.47 1011.03 1010.61 1010.22 1009.87 1009.55 1009.28 1009.05 1008.86 1008.71 1008.58 1008.47 1008.36 1008.25 1008.11 1007.96 1007.78 1007.59 1007.38 1007.17 1006.95 1006.74 1006.53
1011.46 1011.72 1011.90 1012.01 1012.07 1012.10 1012.15 1012.24 1012.38 1012.57 1012.80 1013.02 1013.22 1013.36 1013.40 1013.33 1013.15 1012.87 1012.50 1012.05 1011.57 1011.06 1010.56 1010.08 1009.63 1009.22 1008.86 1008.54 1008.27 1008.03 1007.83 1007.65 1007.49 1007.34 1007.19 1007.04 1006.88 1006.72 1006.56 1006.40 1006.25 1006.10 1005.94 1005.79
1011.82 1012.18 1012.47 1012.69 1012.83 1012.93 1013.01 1013.07 1013.15 1013.24 1013.34 1013.42 1013.47 1013.46 1013.38 1013.19 1012.91 1012.54 1012.08 1011.57 1011.01 1010.45 1009.89 1009.37 1008.88 1008.45 1008.06 1007.73 1007.44 1007.19 1006.97 1006.76 1006.58 1006.40 1006.23 1006.06 1005.89 1005.74 1005.59 1005.46 1005.34 1005.23 1005.12 1005.01
1012.19 1012.61 1012.98 1013.27 1013.50 1013.65 1013.75 1013.81 1013.84 1013.84 1013.82 1013.77 1013.67 1013.51 1013.28 1012.96 1012.56 1012.08 1011.53 1010.94 1010.33 1009.71 1009.12 1008.57 1008.07 1007.63 1007.26 1006.93 1006.66 1006.42 1006.20 1006.00 1005.80 1005.61 1005.43 1005.24 1005.07 1004.90 1004.76 1004.63 1004.52 1004.42 1004.33 1004.24
1012.57 1013.02 1013.42 1013.77 1014.04 1014.24 1014.35 1014.39 1014.38 1014.30 1014.18 1014.00 1013.77 1013.47 1013.10 1012.65 1012.14 1011.56 1010.93 1010.27 1009.61 1008.96 1008.35 1007.79 1007.30 1006.88 1006.52 1006.23 1005.98 1005.77 1005.58 1005.39 1005.21 1005.01 1004.82 1004.62 1004.42 1004.24 1004.07 1003.92 1003.80 1003.70 1003.61 1003.53
1012.98 1013.41 1013.82 1014.18 1014.46 1014.67 1014.78 1014.80 1014.73 1014.59 1014.37 1014.09 1013.74 1013.32 1012.83 1012.29 1011.68 1011.03 1010.34 1009.64 1008.95 1008.29 1007.67 1007.12 1006.64 1006.25 1005.92 1005.65 1005.44 1005.26 1005.09 1004.93 1004.75 1004.56 1004.35 1004.13 1003.91 1003.70 1003.50 1003.32 1003.17 1003.05 1002.95 1002.88
1013.39 1013.78 1014.16 1014.50 1014.76 1014.94 1015.02 1015.00 1014.88 1014.66 1014.37 1014.00 1013.56 1013.05 1012.49 1011.88 1011.22 1010.53 1009.82 1009.11 1008.41 1007.75 1007.15 1006.61 1006.14 1005.76 1005.45 1005.20 1005.01 1004.84 1004.69 1004.53 1004.36 1004.16 1003.94 1003.70 1003.45 1003.20 1002.97 1002.75 1002.57 1002.43 1002.33 1002.27
1013.75 1014.10 1014.43 1014.72 1014.94 1015.07 1015.09 1015.01 1014.83 1014.55 1014.18 1013.74 1013.24 1012.68 1012.08 1011.45 1010.78 1010.09 1009.40 1008.70 1008.03 1007.38 1006.79 1006.25 1005.79 1005.40 1005.08 1004.82 1004.61 1004.44 1004.27 1004.11 1003.92 1003.71 1003.48 1003.21 1002.94 1002.66 1002.39 1002.15 1001.95 1001.80 1001.70 1001.66
1014.03 1014.33 1014.61 1014.84 1015.00 1015.06 1015.02 1014.87 1014.62 1014.27 1013.84 1013.36 1012.82 1012.24 1011.64 1011.02 1010.38 1009.73 1009.08 1008.43 1007.79 1007.16 1006.57 1006.03 1005.54 1005.12 1004.75 1004.45 1004.19 1003.97 1003.77 1003.56 1003.35 1003.12 1002.86 1002.57 1002.28 1001.98 1001.70 1001.45 1001.24 1001.11 1001.04 1001.04
1014.18 1014.45 1014.68 1014.86 1014.96 1014.95 1014.84 1014.62 1014.30 1013.90 1013.42 1012.90 1012.35 1011.79 1011.21 1010.63 1010.05 1009.46 1008.87 1008.27 1007.67 1007.06 1006.47 1005.89 1005.36 1004.86 1004.42 1004.03 1003.69 1003.39 1003.11 1002.85 1002.59 1002.33 1002.04 1001.74 1001.44 1001.14 1000.86 1000.63 1000.45 1000.34 1000.32 1000.39
1014.19 1014.44 1014.65 1014.79 1014.84 1014.78 1014.61 1014.33 1013.96 1013.51 1013.00 1012.47 1011.92 1011.38 1010.85 1010.33 1009.81 1009.30 1008.77 1008.22 1007.65 1007.05 1006.43 1005.81 1005.19 1004.60 1004.05 1003.54 1003.09 1002.68 1002.32 1001.99 1001.67 1001.37 1001.06 1000.76 1000.46 1000.18 999.93 999.73 999.60 999.55 999.59 999.73
Thickness
5815 5800 5788 5797 5809 5808 5811 5812 5816 5832 5846 5831 5820 5824 5836 5840 5834 5833 5838 5839 5836 5833 5831 5825 5815 5808 5809 5805 5797 5791 5787 5785 5780 5776 5771 5766 5762 5761 5760 5758 5754 5751 5748 5746
5798 5777 5798 5812 5813 5809 5808 5803 5809 5821 5831 5823 5814 5817 5832 5837 5832 5830 5828 5823 5816 5812 5798 5788 5777 5779 5785 5788 5785 5781 5778 5776 5773 5769 5764 5760 5755 5754 5754 5752 5749 5746 5743 5741
5786 5784 5808 5808 5802 5797 5796 5793 5794 5796 5809 5815 5808 5804 5819 5830 5822 5810 5803 5794 5789 5771 5757 5748 5740 5743 5759 5767 5768 5771 5770 5767 5766 5763 5760 5756 5750 5745 5743 5743 5742 5741 5739 5737
5797 5806 5806 5799 5796 5795 5786 5801 5798 5797 5790 5788 5801 5781 5805 5805 5787 5780 5777 5764 5752 5751 5747 5735 5726 5726 5735 5745 5752 5756 5759 5758 5757 5755 5751 5746 5740 5735 5736 5737 5738 5737 5736 5733
5786 5800 5799 5791 5795 5799 5794 5804 5799 5795 5786 5777 5781 5771 5781 5793 5768 5760 5760 5754 5748 5745 5740 5732 5722 5722 5725 5732 5733 5733 5739 5742 5743 5744 5742 5738 5734 5733 5735 5736 5734 5732 5732 5730
5791 5813 5810 5803 5809 5811 5807 5800 5797 5792 5765 5728 5730 5732 5752 5772 5763 5754 5751 5749 5746 5742 5736 5728 5724 5722 5721 5724 5724 5720 5721 5721 5723 5725 5727 5727 5725 5724 5724 5724 5724 5726 5727 5728
5763 5793 5811 5816 5800 5804 5796 5779 5762 5753 5723 5707 5726 5727 5740 5756 5756 5749 5743 5740 5738 5735 5729 5723 5718 5715 5714 5713 5712 5710 5708 5707 5708 5708 5709 5712 5714 5716 5715 5715 5717 5720 5720 5721
5736 5753 5794 5809 5798 5785 5786 5780 5756 5742 5745 5757 5748 5736 5728 5737 5740 5739 5737 5734 5729 5725 5721 5716 5712 5708 5704 5701 5700 5698 5697 5696 5697 5697 5696 5697 5699 5701 5703 5705 5709 5713 5714 5715
5768 5771 5807 5815 5813 5799 5782 5779 5785 5766 5764 5759 5759 5731 5721 5720 5716 5720 5724 5723 5717 5713 5710 5707 5703 5699 5695 5690 5688 5686 5684 5683 5683 5683 5683 5685 5685 5686 5688 5692 5696 5699 5701 5704
5789 5774 5795 5811 5815 5809 5797 5787 5775 5757 5738 5733 5752 5734 5712 5701 5700 5709 5710 5708 5705 5703 5699 5695 5691 5688 5684 5680 5676 5673 5670 5668 5667 5667 5667 5669 5669 5671 5673 5677 5679 5683 5686 5690
5795 5775 5782 5794 5778 5776 5785 5780 5773 5763 5752 5729 5722 5718 5722 5709 5705 5701 5699 5697 5693 5689 5686 5682 5679 5675 5671 5667 5663 5659 5656 5652 5650 5649 5648 5648 5649 5651 5655 5659 5663 5666 5670 5674
5789 5776 5764 5774 5784 5778 5781 5776 5767 5743 5736 5739 5727 5701 5714 5705 5699 5693 5689 5685 5681 5676 5673 5670 5666 5662 5657 5651 5646 5641 5637 5635 5633 5631 5630 5630 5631 5632 5634 5638 5641 5646 5651 5657
5776 5758 5744 5757 5763 5769 5771 5776 5772 5757 5740 5727 5708 5688 5703 5701 5694 5689 5681 5675 5671 5667 5663 5659 5654 5649 5642 5636 5631 5626 5622 5619 5617 5615 5614 5613 5614 5615 5616 5618 5621 5624 5630 5637
5776 5757 5745 5737 5752 5770 5769 5770 5764 5748 5728 5717 5710 5694 5694 5691 5683 5677 5671 5666 5662 5657 5653 5649 5644 5637 5629 5623 5617 5611 5607 5604 5601 5598 5596 5595 5596 5597 5599 5601 5603 5606 5610 5617
5775 5756 5755 5760 5771 5773 5762 5753 5746 5733 5719 5707 5703 5698 5693 5681 5672 5667 5664 5659 5652 5645 5641 5635 5627 5618 5611 5604 5598 5592 5588 5584 5581 5579 5576 5575 5576 5577 5579 5582 5585 5589 5593 5599
5768 5751 5748 5749 5763 5763 5745 5736 5729 5720 5711 5702 5695 5691 5690 5678 5668 5659 5652 5645 5636 5631 5623 5614 5605 5597 5589 5582 5577 5572 5569 5566 5564 5561 5558 5556 5556 5557 5558 5562 5566 5571 5576 5582
5753 5736 5730 5732 5753 5752 5716 5712 5708 5702 5699 5690 5679 5680 5676 5662 5652 5645 5638 5631 5625 5613 5601 5590 5582 5574 5568 5565 5562 5560 5559 5558 5555 5553 5551 5549 5548 5548 5549 5551 5554 5557 5560 5565
5745 5734 5728 5735 5737 5708 5702 5716 5707 5695 5691 5685 5675 5663 5655 5647 5642 5635 5627 5617 5601 5589 5579 5571 5565 5561 5560 5559 5558 5556 5553 5550 5548 5546 5545 5544 5543 5543 5544 5546 5549 5550 5551 5553
5756 5737 5726 5724 5717 5711 5702 5703 5694 5680 5675 5667 5656 5649 5642 5636 5627 5624 5615 5598 5583 5573 5566 5561 5559 5558 5557 5555 5553 5551 5548 5544 5541 5539 5537 5536 5535 5536 5537 5539 5542 5545 5546 5547
5754 5745 5731 5716 5699 5692 5687 5694 5694 5681 5671 5659 5649 5638 5630 5622 5610 5609 5600 5585 5575 5567 5562 5559 5558 5556 5554 5552 5549 5545 5541 5537 5533 5530 5528 5526 5526 5527 5529 5531 5534 5536 5538 5541
5728 5729 5717 5704 5695 5693 5690 5693 5684 5656 5648 5653 5644 5633 5620 5607 5595 5591 5586 5578 5570 5566 5562 5559 5556 5552 5549 5545 5541 5536 5532 5526 5523 5520 5518 5516 5515 5516 5519 5522 5525 5527 5529 5532
5718 5709 5699 5694 5683 5676 5690 5679 5657 5646 5649 5641 5631 5622 5612 5602 5593 5583 5575 5570 5567 5564 5560 5555 5550 5546 5541 5536 5530 5526 5520 5515 5509 5506 5505 5505 5505 5506 5511 5514 5516 5518 5520 5523
5719 5701 5692 5688 5681 5688 5681 5669 5661 5652 5640 5632 5623 5615 5604 5594 5585 5577 5572 5568 5564 5558 5553 5547 5541 5536 5530 5523 5515 5509 5504 5498 5494 5493 5493 5494 5496 5497 5499 5502 5505 5508 5511 5514
5713 5712 5699 5688 5690 5684 5674 5666 5658 5647 5636 5627 5617 5607 5596 5585 5578 5573 5569 5564 5558 5551 5543 5536 5528 5520 5513 5505 5497 5490 5486 5483 5481 5481 5482 5484 5486 5488 5490 5493 5496 5499 5503 5507
5710 5706 5690 5682 5680 5673 5668 5658 5649 5642 5632 5621 5611 5599 5587 5578 5573 5568 5563 5557 5550 5541 5531 5518 5506 5497 5491 5485 5480 5476 5472 5470 5469 5470 5472 5474 5476 5479 5482 5485 5488 5491 5496 5499
5709 5693 5677 5668 5668 5658 5653 5650 5644 5633 5623 5614 5604 5594 5584 5574 5567 5562 5556 5549 5538 5526 5512 5500 5489 5481 5476 5472 5470 5467 5464 5462 5462 5464 5466 5467 5469 5472 5474 5477 5481 5485 5488 5492